Location: Newark
(47.5833°N, 8.1500°E)
Time: 11:51:48
(UTC+00:00)

Vanguard 2 Rocket - Pass Details

Date: 05 November 2020
Orbit: 553 x 3326 km, 32.9° (Epoch: 04 December)

Event Time Altitude Azimuth Distance (km) Brightness Sun altitude
Rises 14:59:50 0° 221° (SW) 3,631 11.9 8.5°
Reaches altitude 10° 15:05:35 10° 178° (S) 2,141 9.3 7.7°
Maximum altitude 15:06:00 10° 173° (S) 2,102 9.2 7.7°
Drops below altitude 10° 15:06:25 10° 168° (SSE) 2,079 9.1 7.6°
Sets 15:10:56 0° 120° (ESE) 2,749 9.1 7.0°
